User: anonymous   Login
Location: Dappach
(48.9767°N, 9.6998°E)
Time: 19:32:40
(UTC+00:00)
Language:

Cosmos 2360 Rocket - Orbit

View from above orbital plane
View from above orbital plane
View from above satellite
View from above satellite

Ground track
Ground track

The orbit data is extracted from the following two-line orbital elements,

1 25407U 98045B   24199.58670644  .00000012  00000-0  30061-4 0  9996
2 25407  71.0122   3.4356 0009087 230.8468 129.1848 14.16013197342149
Epoch (UTC): 17 July 2024 14:04:51
Eccentricity: 0.0009087
inclination: 71.0122°
perigee height: 832 km
apogee height: 845 km
right ascension of ascending node: 3.4356°
argument of perigee: 230.8468°
revolutions per day: 14.16013197
mean anomaly at epoch: 129.1848°
orbit number at epoch: 34214

The dashed part of the orbit path shows where the satellite is in the earth's shadow,  

DLR